Location: Newark
(34.3481°N, 134.0494°E)
Time: 03:19:59
(UTC+00:00)

Vanguard 3 - Pass Details

Date: 05 February 2020
Orbit: 508 x 3263 km, 33.3° (Epoch: 16 February)

Event Time Altitude Azimuth Distance (km) Brightness Sun altitude
Rises 11:35:06 0° 287° (WNW) 7,170 12.9 -37.1°
Reaches altitude 10° 11:40:11 10° 282° (WNW) 6,203 12.3 -38.1°
Maximum altitude 11:58:15 46° 218° (SW) 3,555 10.3 -41.8°
Enters shadow 12:04:12 35° 176° (S) 3,632 10.2 -43.0°
Drops below altitude 10° 12:11:39 10° 150° (SSE) 4,666 - -44.5°
Sets 12:14:53 0° 144° (SE) 5,335 - -45.2°
